[[{"header":{"parameterUnit":"m.s-1","parameterCategory":2,"la1":30.2991,"la2":30.254,"lo1":-89.0895,"lo2":-89.0444,"dy":0.0017,"dx":0.0017,"nx":28,"ny":28,"refTime":"2025-08-07T03:00:00:Z","depth":"0","parameterNumber":2,"parameterNumberName":"U-component_of_CURRENTS"},"data":[0,0,0,0,0,0,0,0,0,0,0,0,0,0,0,0,0,0,0,0,0,0,0,0,0,0,0,0,0,0,0,0,0,0,0,0,0,0,0,0,0,0,0,0,0,0,0,0,0,0,0,0,0,0,0,0,0,0,0.2223,0.2224,0,0.2262,0.2262,0.2262,0.2254,0.2254,0.2253,0.2253,0.2233,0.2233,0.2232,0,0,0,0,0,0,0,0,0,0,0,0,0,0.2138,0.214,0.2223,0.2224,0.2224,0.2262,0.2262,0.2262,0.2254,0.2254,0.2253,0.2253,0.2233,0.2233,0.2232,0,0,0,0,0,0,0,0,0,0,0,0,0,0.2173,0.214,0.2223,0.2227,0.2228,0.2262,0.2262,0.2262,0.2254,0.2254,0.2253,0.2252,0.2233,0.2233,0.2232,0.2245,0,0,0.2232,0.2232,0,0,0,0,0,0,0,0,0.2171,0.2176,0.2226,0.2227,0.2228,0.2255,0.2225,0.2255,0.2255,0.2242,0.2253,0.2252,0.2237,0.2236,0.2242,0.2244,0.2243,0.2232,0.2232,0.2232,0.2232,0,0,0,0,0,0,0,0.2169,0.2174,0.2235,0.2226,0.2228,0.2226,0.223,0.223,0.2239,0.2243,0.2243,0.2252,0.2237,0.2242,0.2242,0.2243,0.2232,0.2232,0.2232,0.2232,0.227,0.2271,0,0,0,0,0,0,0.2171,0.2172,0.2234,0.2237,0.22,0.2228,0.2232,0.2245,0.2241,0.2241,0.2252,0.2251,0.2243,0.2242,0.2241,0.2269,0.2232,0.2232,0.2232,0.2269,0.2271,0.2272,0,0,0,0,0,0,0.2169,0.2176,0.2233,0.2207,0.2215,0.2231,0.2244,0.2246,0.2256,0.2249,0.2247,0.2261,0.2242,0.2241,0.2249,0.2268,0.2232,0.2231,0.2268,0.227,0.2271,0.2318,0,0,0,0,0,0,0.2166,0.2175,0.2184,0.2208,0.2216,0.226,0.2245,0.2247,0.2263,0.2262,0.2256,0.2253,0.2242,0.2249,0.2249,0.2267,0.2231,0.2266,0.2269,0.2271,0.2315,0.2321,0.2326,0,0,0,0,0,0.2163,0.2176,0.2184,0.2192,0.2228,0.2261,0.2265,0.2271,0.2264,0.2276,0.2271,0.2254,0.2262,0.225,0.2249,0.2268,0.2265,0.2268,0.227,0.2312,0.232,0.2326,0,0,0,0,0,0,0.2139,0.2178,0.2187,0.2209,0.2238,0.226,0.227,0.2278,0.2284,0.2279,0.2267,0.2265,0.2281,0.227,0.2257,0.2286,0.2262,0.2264,0.2294,0.2301,0.2306,0.2297,0.2231,0,0,0,0,0,0.2142,0.216,0.2198,0.2215,0.2232,0.2253,0.2267,0.2276,0.2287,0.2289,0.2286,0.2284,0.2292,0.2291,0.2294,0.2308,0.2336,0.2321,0.2326,0.2331,0.2324,0.2377,0.2387,0.228,0.228,0.228,0,0,0.2134,0.2159,0.2169,0.2212,0.2231,0.2257,0.2259,0.2284,0.23,0.2285,0.2299,0.2304,0.2301,0.2319,0.2325,0.231,0.2388,0.2334,0.2338,0.2329,0.2381,0.2391,0.24,0.2282,0.2281,0.2281,0,0,0.2131,0.2157,0.2174,0.2202,0.2241,0.226,0.2271,0.2302,0.2312,0.2333,0.2329,0.2343,0.2351,0.2355,0.2357,0.2395,0.2418,0.2402,0.2419,0.2471,0.248,0.2488,0.2588,0.2605,0.2402,0.2402,0.2402,0,0.2121,0.2152,0.2183,0.2209,0.2229,0.2263,0.2284,0.2306,0.2333,0.2341,0.234,0.2373,0.2366,0.2394,0.2406,0.2407,0.2459,0.2394,0.2479,0.2487,0.2495,0.2595,0.2612,0.2404,0.2404,0.2404,0.2404,0,0.2133,0.2161,0.2175,0.2219,0.2242,0.2271,0.2308,0.2329,0.2345,0.2363,0.24,0.2412,0.2428,0.2438,0.2429,0.2482,0.2514,0.2484,0.2462,0.2508,0.2611,0.2629,0.2408,0.2407,0.2406,0.2406,0,0,0.2102,0.2171,0.2175,0.2195,0.2252,0.2269,0.2302,0.234,0.2369,0.2396,0.244,0.2451,0.2467,0.2471,0.2482,0.2521,0.2633,0.2526,0.2528,0.2627,0.28,0.2827,0.2849,0.2625,0.2627,0.2628,0.287,0,0.2104,0.2145,0.2181,0.2216,0.224,0.228,0.2311,0.2344,0.2387,0.2441,0.2465,0.2518,0.2481,0.2518,0.2544,0.2616,0.2673,0.2573,0.2738,0.2744,0.2761,0.2866,0.2787,0.2995,0.2887,0.289,0.2892,0,0.2104,0.2133,0.2164,0.2219,0.2233,0.2256,0.2311,0.2349,0.2425,0.2465,0.2513,0.256,0.2631,0.2599,0.2731,0.2676,0.2734,0.2785,0.2795,0.2805,0.28,0.292,0.3031,0.2928,0.2919,0.2917,0.2915,0,0.206,0.2119,0.214,0.2159,0.2226,0.2239,0.2275,0.2343,0.2394,0.2502,0.2575,0.2644,0.273,0.2786,0.2884,0.2825,0.3054,0.2984,0.3068,0.3073,0.3028,0.3024,0.3049,0.3074,0.3073,0.3072,0.3072,0,0.2049,0.2064,0.212,0.2132,0.2161,0.221,0.2262,0.2316,0.2421,0.2499,0.2588,0.269,0.2781,0.2917,0.2954,0.3099,0.3115,0.3105,0.3137,0.3048,0.3044,0.2965,0.2913,0.3081,0.3079,0.3078,0.3076,0,0.1998,0.2041,0.2067,0.2124,0.2143,0.2159,0.2253,0.2301,0.2416,0.2536,0.2588,0.2771,0.2951,0.3065,0.322,0.3225,0.3262,0.3375,0.3297,0.3312,0.3237,0.3191,0.3173,0.3067,0.3502,0.3504,0.3506,0,0.1977,0.1986,0.2042,0.2056,0.2082,0.2124,0.2162,0.2276,0.2345,0.2577,0.264,0.2879,0.3021,0.3302,0.3389,0.3532,0.3364,0.3523,0.3356,0.3256,0.3229,0.3071,0.2968,0.3351,0.3351,0.3352,0.3352,0,0.1928,0.1948,0.1965,0.2008,0.2041,0.2087,0.2157,0.2211,0.2365,0.2493,0.2686,0.2834,0.3142,0.3282,0.3502,0.3545,0.335,0.3531,0.3432,0.3127,0.2951,0.2857,0.3205,0.3354,0.3354,0.3354,0.3354,0.3354,0.1877,0.1882,0.1917,0.1954,0.199,0.2039,0.205,0.2154,0.2267,0.2444,0.2635,0.2835,0.312,0.3416,0.3454,0.3469,0.3388,0.3361,0.3333,0.3195,0.3011,0.3393,0.3556,0.3556,0.3557,0.3558,0.3558,0,0.1822,0.1841,0.1867,0.1903,0.1914,0.1969,0.2037,0.2046,0.2136,0.2361,0.2527,0.2836,0.3037,0.3218,0.3374,0.3287,0.3096,0.3189,0.2916,0.2833,0.3202,0.3107,0.3171,0.3171,0.3171,0.3171,0.3171,0.3171,0.1792,0.18,0.1831,0.1831,0.1844,0.1834,0.185,0.1894,0.2016,0.2207,0.239,0.2598,0.294,0.3213,0.3197,0.3112,0.2814,0.2751,0.2677,0.2913,0.2924,0.2933,0.2829,0.2833,0.2833,0.2177,0.2172,0.2168]},{"header":{"parameterUnit":"m.s-1","parameterCategory":2,"la1":30.2991,"la2":30.254,"lo1":-89.0895,"lo2":-89.0444,"dy":0.0017,"dx":0.0017,"nx":28,"ny":28,"refTime":"2025-08-07T03:00:00:Z","depth":"0","parameterNumber":3,"parameterNumberName":"V-component_of_CURRENTS"},"data":[0,0,0,0,0,0,0,0,0,0,0,0,0,0,0,0,0,0,0,0,0,0,0,0,0,0,0,0,0,0,0,0,0,0,0,0,0,0,0,0,0,0,0,0,0,0,0,0,0,0,0,0,0,0,0,0,0,0,-0.0022,-0.0023,0,-0.0101,-0.0102,-0.0103,-0.0152,-0.0152,-0.0153,-0.0153,-0.026,-0.0263,-0.0265,0,0,0,0,0,0,0,0,0,0,0,0,0,0.0039,0.0038,-0.0022,-0.0023,-0.0024,-0.0101,-0.0102,-0.0103,-0.0152,-0.0152,-0.0153,-0.0153,-0.0259,-0.0263,-0.0266,0,0,0,0,0,0,0,0,0,0,0,0,0,-0.0009,0.0038,-0.0021,-0.0057,-0.0061,-0.0101,-0.0102,-0.0104,-0.0152,-0.0152,-0.0153,-0.0153,-0.0258,-0.0262,-0.0266,-0.0284,0,0,-0.0278,-0.028,0,0,0,0,0,0,0,0,-0.0006,-0.0011,-0.0051,-0.0055,-0.0059,-0.0117,-0.0121,-0.0165,-0.0152,-0.0118,-0.0153,-0.0153,-0.0214,-0.0222,-0.0236,-0.0289,-0.0294,-0.0279,-0.0281,-0.0283,-0.0284,0,0,0,0,0,0,0,-0.0003,-0.0008,-0.0054,-0.0052,-0.0057,-0.0086,-0.0093,-0.0129,-0.0164,-0.0121,-0.0124,-0.0133,-0.0217,-0.0232,-0.0239,-0.0295,-0.0279,-0.0282,-0.0285,-0.0286,-0.0383,-0.0383,0,0,0,0,0,0,0.0011,-0.0005,-0.0051,-0.0056,-0.0032,-0.0086,-0.0094,-0.0098,-0.0163,-0.0173,-0.0132,-0.0135,-0.0225,-0.0235,-0.0243,-0.0277,-0.0283,-0.0287,-0.0289,-0.0383,-0.0383,-0.0383,0,0,0,0,0,0,0.0012,0.0008,-0.0048,-0.0032,-0.0041,-0.0087,-0.0091,-0.01,-0.0116,-0.0172,-0.0182,-0.014,-0.0226,-0.0238,-0.0274,-0.0281,-0.0288,-0.0292,-0.0383,-0.0383,-0.0383,-0.0338,0,0,0,0,0,0,0.0015,0.0009,0.0011,-0.0031,-0.0042,-0.0066,-0.0091,-0.0101,-0.012,-0.0124,-0.0181,-0.0192,-0.0227,-0.0268,-0.0278,-0.0287,-0.0295,-0.0382,-0.0383,-0.0383,-0.034,-0.0337,-0.0335,0,0,0,0,0,0.0017,0.0023,0.0012,0.0006,-0.0037,-0.0066,-0.0074,-0.0108,-0.012,-0.0124,-0.0163,-0.019,-0.0277,-0.0271,-0.0283,-0.0293,-0.0382,-0.0383,-0.0383,-0.0341,-0.0338,-0.0335,0,0,0,0,0,0,0.005,0.0017,0.0004,-0.0,-0.0028,-0.0074,-0.0081,-0.0103,-0.0137,-0.014,-0.0192,-0.0205,-0.0239,-0.027,-0.0262,-0.0322,-0.0335,-0.0338,-0.0298,-0.0296,-0.0294,-0.0282,-0.0298,0,0,0,0,0,0.006,0.0056,0.0018,0.0015,0.0004,-0.0037,-0.0052,-0.0075,-0.011,-0.0126,-0.0166,-0.021,-0.025,-0.0275,-0.0312,-0.0344,-0.0356,-0.0359,-0.0357,-0.0355,-0.0353,-0.0382,-0.0382,-0.0385,-0.0385,-0.0385,0,0,0.0071,0.0054,0.005,0.0022,-0.0002,-0.0019,-0.0047,-0.0065,-0.0082,-0.0132,-0.0163,-0.0201,-0.0256,-0.0291,-0.031,-0.0319,-0.0354,-0.0355,-0.0353,-0.0353,-0.0383,-0.0382,-0.0382,-0.0385,-0.0385,-0.0385,0,0,0.0088,0.0078,0.0077,0.0057,0.0026,0.0,-0.0002,-0.0044,-0.0064,-0.0096,-0.0138,-0.0176,-0.0236,-0.0278,-0.0308,-0.0315,-0.0337,-0.0329,-0.0313,-0.0341,-0.0341,-0.0341,-0.0326,-0.0325,-0.0332,-0.0332,-0.0332,0,0.0102,0.0094,0.0072,0.0063,0.005,0.0012,0.0005,-0.0022,-0.0072,-0.008,-0.0099,-0.0181,-0.0231,-0.0277,-0.0288,-0.031,-0.0314,-0.0318,-0.0337,-0.0338,-0.0338,-0.0323,-0.0323,-0.0329,-0.033,-0.033,-0.033,0,0.0111,0.0105,0.0104,0.008,0.0066,0.0055,0.0019,0.0004,-0.0021,-0.0047,-0.0085,-0.015,-0.0195,-0.0226,-0.0267,-0.0301,-0.0295,-0.0325,-0.034,-0.0335,-0.0319,-0.032,-0.0326,-0.0327,-0.0328,-0.0328,0,0,0.0141,0.0115,0.0114,0.0111,0.0076,0.0069,0.0049,0.0025,0.0037,-0.0026,-0.0013,-0.012,-0.014,-0.0176,-0.0229,-0.0272,-0.0284,-0.0303,-0.0306,-0.0279,-0.0312,-0.0261,-0.0256,-0.0318,-0.0319,-0.032,-0.0287,0,0.0152,0.0149,0.0128,0.0125,0.0122,0.0092,0.0087,0.0066,0.0052,0.0061,-0.0012,-0.0017,-0.0125,-0.0123,-0.0195,-0.024,-0.0288,-0.0288,-0.0329,-0.0329,-0.0278,-0.0257,-0.0289,-0.0259,-0.0287,-0.0287,-0.0287,0,0.0163,0.0162,0.0164,0.0162,0.0161,0.0159,0.017,0.0161,0.0157,0.0159,0.0124,0.0093,0.0034,-0.0047,-0.0165,-0.0155,-0.0242,-0.0297,-0.0297,-0.0268,-0.028,-0.0276,-0.0259,-0.046,-0.0288,-0.0288,-0.0288,0,0.0202,0.0188,0.0197,0.0191,0.0182,0.0192,0.0195,0.0197,0.0242,0.0247,0.0318,0.0204,0.0234,0.007,-0.0046,-0.0104,-0.0142,-0.023,-0.0272,-0.0268,-0.0312,-0.031,-0.049,-0.0334,-0.0334,-0.0335,-0.0335,0,0.0223,0.0232,0.0222,0.023,0.0267,0.0245,0.0312,0.0305,0.0369,0.0481,0.0386,0.0479,0.0265,0.0225,0.0031,-0.0078,-0.0082,-0.0255,-0.026,-0.0293,-0.029,-0.048,-0.0584,-0.0333,-0.0334,-0.0334,-0.0334,0,0.027,0.0251,0.0275,0.0281,0.0287,0.0326,0.0415,0.0488,0.0532,0.0691,0.0723,0.0725,0.0678,0.0474,0.0286,0.0097,-0.0161,-0.0111,-0.0103,-0.011,-0.0372,-0.047,-0.0613,-0.0684,-0.0172,-0.0171,-0.0169,0,0.0293,0.0307,0.0332,0.0369,0.0379,0.0442,0.0511,0.0562,0.0684,0.0866,0.098,0.0999,0.1042,0.0805,0.0464,0.0171,-0.0064,-0.0049,-0.0201,-0.0374,-0.049,-0.0572,-0.0629,-0.0234,-0.0233,-0.0233,-0.0233,0,0.0353,0.0364,0.0393,0.0481,0.055,0.0647,0.0766,0.0892,0.1018,0.1177,0.1394,0.1444,0.1238,0.0956,0.0572,0.0324,-0.0188,-0.0047,-0.026,-0.0571,-0.0643,-0.0716,-0.0236,-0.0229,-0.0229,-0.0229,-0.0229,-0.023,0.0413,0.0463,0.0524,0.0619,0.0708,0.0882,0.1012,0.1175,0.1403,0.1666,0.1688,0.1785,0.1331,0.08,0.0487,-0.0138,-0.0139,-0.0384,-0.0487,-0.0551,-0.0642,-0.0111,-0.0091,-0.0091,-0.009,-0.009,-0.009,0,0.0515,0.0579,0.0667,0.081,0.0968,0.0983,0.1213,0.1371,0.1666,0.1839,0.2003,0.1793,0.1258,0.0672,-0.0143,-0.0534,-0.0723,-0.0761,-0.0954,-0.0992,-0.0562,-0.0589,-0.0635,-0.0635,-0.0635,-0.0635,-0.0634,-0.0634,0.0577,0.07,0.0764,0.1039,0.1148,0.138,0.1529,0.1726,0.1873,0.2066,0.2079,0.2056,0.1556,0.0143,-0.0804,-0.1011,-0.1312,-0.1348,-0.1453,-0.125,-0.1225,-0.1203,-0.1257,-0.1442,-0.1443,-0.1879,-0.1884,-0.1887]}],[{"header":{"parameterUnit":"m.s-1","parameterCategory":2,"la1":30.2991,"la2":30.254,"lo1":-89.0895,"lo2":-89.0444,"dy":0.0017,"dx":0.0017,"nx":28,"ny":28,"refTime":"2025-08-07T03:00:00:Z","depth":"2","parameterNumber":2,"parameterNumberName":"U-component_of_CURRENTS"},"data":[0,0,0,0,0,0,0,0,0,0,0,0,0,0,0,0,0,0,0,0,0,0,0,0,0,0,0,0,0,0,0,0,0,0,0,0,0,0,0,0,0,0,0,0,0,0,0,0,0,0,0,0,0,0,0,0,0,0,0.2094,0.2094,0,0.2141,0.2141,0.2141,0.2144,0.2144,0.2144,0.2143,0.2165,0.2166,0.2166,0,0,0,0,0,0,0,0,0,0,0,0,0,0.2034,0.2035,0.2093,0.2094,0.2095,0.214,0.2141,0.2141,0.2144,0.2144,0.2143,0.2143,0.2165,0.2166,0.2167,0,0,0,0,0,0,0,0,0,0,0,0,0,0.2065,0.2035,0.2093,0.2104,0.2106,0.214,0.2141,0.2141,0.2144,0.2144,0.2143,0.2143,0.2164,0.2165,0.2167,0.2182,0,0,0.217,0.2171,0,0,0,0,0,0,0,0,0.2064,0.2067,0.2102,0.2104,0.2106,0.2139,0.2128,0.2155,0.2144,0.2126,0.2143,0.2143,0.2156,0.2158,0.2164,0.2183,0.2184,0.217,0.2171,0.2172,0.2172,0,0,0,0,0,0,0,0.2061,0.2065,0.2109,0.2103,0.2105,0.2117,0.212,0.2133,0.214,0.2128,0.2129,0.2139,0.2156,0.2162,0.2164,0.2184,0.217,0.2172,0.2172,0.2173,0.226,0.2261,0,0,0,0,0,0,0.2061,0.2063,0.2108,0.2111,0.2087,0.2118,0.2122,0.2126,0.214,0.2143,0.214,0.2139,0.2161,0.2163,0.2165,0.2231,0.2172,0.2173,0.2174,0.2258,0.226,0.2262,0,0,0,0,0,0,0.2059,0.2064,0.2106,0.2091,0.2097,0.212,0.2124,0.2127,0.2153,0.215,0.2152,0.2165,0.216,0.2163,0.2192,0.223,0.2173,0.2175,0.2256,0.2259,0.2261,0.2333,0,0,0,0,0,0,0.2057,0.2063,0.2076,0.2091,0.2098,0.2144,0.2125,0.2128,0.2161,0.2161,0.2173,0.2173,0.216,0.219,0.2193,0.223,0.2175,0.2254,0.2257,0.226,0.2328,0.2337,0.2345,0,0,0,0,0,0.2055,0.207,0.2076,0.2082,0.2111,0.2146,0.2151,0.2163,0.2162,0.2183,0.2186,0.2174,0.2211,0.2193,0.2196,0.2234,0.2253,0.2256,0.226,0.2324,0.2335,0.2344,0,0,0,0,0,0,0.2048,0.2072,0.2079,0.21,0.2131,0.2148,0.2167,0.218,0.22,0.2202,0.2193,0.2194,0.2236,0.2225,0.2205,0.2268,0.2231,0.2235,0.2279,0.2289,0.2297,0.2279,0.2176,0,0,0,0,0,0.2055,0.2071,0.21,0.2118,0.2134,0.2157,0.2176,0.2191,0.2207,0.2217,0.2228,0.2237,0.2251,0.2262,0.2273,0.2307,0.2323,0.2334,0.2343,0.235,0.2337,0.2389,0.2401,0.2273,0.2273,0.2273,0,0,0.2056,0.2072,0.2081,0.2119,0.2137,0.2174,0.2167,0.2205,0.2236,0.2216,0.2262,0.2271,0.2267,0.2305,0.2322,0.2302,0.2406,0.2354,0.236,0.2343,0.2394,0.2407,0.2418,0.2276,0.2275,0.2275,0,0,0.2071,0.2082,0.2109,0.2138,0.2183,0.2199,0.2218,0.2257,0.2274,0.2319,0.2313,0.234,0.2368,0.2372,0.2374,0.2435,0.245,0.2451,0.2477,0.2529,0.254,0.2549,0.2634,0.265,0.2453,0.2453,0.2453,0,0.2079,0.2107,0.2124,0.2163,0.2183,0.2214,0.2249,0.228,0.2327,0.2337,0.2342,0.2391,0.2394,0.2429,0.2447,0.2454,0.2497,0.244,0.254,0.2549,0.2558,0.2642,0.2659,0.2457,0.2456,0.2456,0.2456,0,0.2109,0.2147,0.2163,0.2215,0.2242,0.2277,0.2317,0.2353,0.2376,0.2399,0.245,0.2466,0.2484,0.2507,0.2491,0.2556,0.2576,0.2549,0.2514,0.2575,0.2661,0.2677,0.2462,0.2461,0.246,0.2459,0,0,0.2091,0.217,0.2178,0.2205,0.2269,0.2287,0.234,0.2381,0.2417,0.2465,0.2513,0.2537,0.2548,0.2551,0.2561,0.2605,0.2719,0.2604,0.2605,0.2688,0.2875,0.2785,0.2795,0.2717,0.2719,0.2721,0.2929,0,0.2112,0.2175,0.221,0.2269,0.23,0.2334,0.2377,0.2419,0.2464,0.2528,0.2548,0.2608,0.2568,0.2605,0.2635,0.2706,0.2758,0.2667,0.2802,0.2806,0.2718,0.2808,0.2582,0.2737,0.2945,0.2947,0.2949,0,0.2132,0.2167,0.2219,0.2283,0.2298,0.2334,0.2383,0.2435,0.2517,0.2558,0.2607,0.2652,0.2727,0.2693,0.2817,0.2768,0.2814,0.2863,0.2872,0.2761,0.2744,0.27,0.2759,0.2977,0.2974,0.2972,0.2971,0,0.209,0.2174,0.2202,0.2225,0.2303,0.2317,0.2356,0.243,0.2486,0.2597,0.2671,0.274,0.2822,0.2873,0.295,0.2906,0.3105,0.3057,0.3022,0.3019,0.2834,0.2808,0.3134,0.3133,0.3133,0.3132,0.3132,0,0.2094,0.2119,0.2182,0.2198,0.223,0.2288,0.2344,0.2401,0.2515,0.2602,0.2684,0.278,0.2872,0.2987,0.3016,0.3081,0.3156,0.3043,0.306,0.2857,0.2832,0.302,0.3004,0.314,0.3138,0.3137,0.3135,0,0.2051,0.2101,0.2134,0.2197,0.2217,0.2234,0.2338,0.2391,0.2509,0.2641,0.2693,0.2858,0.2986,0.3077,0.3212,0.3179,0.3247,0.3244,0.3016,0.2997,0.3118,0.3103,0.3236,0.3235,0.3233,0.3232,0.3231,0,0.2033,0.2046,0.2108,0.2126,0.2153,0.22,0.2244,0.2366,0.244,0.2675,0.2738,0.2925,0.3004,0.3176,0.3167,0.3223,0.3259,0.3049,0.2879,0.3122,0.3127,0.3114,0.3102,0.2708,0.2702,0.2698,0.2695,0,0.1984,0.2005,0.2027,0.2076,0.2115,0.2165,0.2241,0.2299,0.2466,0.2581,0.2744,0.2839,0.2989,0.2932,0.3004,0.299,0.3011,0.296,0.331,0.2685,0.2631,0.2632,0.2637,0.2657,0.2661,0.2664,0.2666,0.2667,0.1932,0.1936,0.198,0.2017,0.2063,0.2114,0.2139,0.2223,0.2323,0.2455,0.2608,0.2656,0.2736,0.2679,0.2651,0.2634,0.2801,0.2696,0.2707,0.2722,0.2592,0.2534,0.2523,0.2526,0.2528,0.2531,0.2533,0,0.1878,0.1897,0.1925,0.1974,0.2007,0.2058,0.2128,0.2125,0.2177,0.2283,0.2357,0.2212,0.2201,0.2279,0.2194,0.2223,0.2179,0.2146,0.207,0.211,0.2146,0.1981,0.1754,0.1751,0.1748,0.1746,0,0,0.1853,0.1861,0.1883,0.1912,0.1947,0.1965,0.1989,0.1952,0.1981,0.1935,0.1926,0.2061,0.2197,0.1917,0.1921,0.1825,0.1941,0.176,0.2392,0.2342,0.2373,0.2481,0.2276,0,0,0,0,0]},{"header":{"parameterUnit":"m.s-1","parameterCategory":2,"la1":30.2991,"la2":30.254,"lo1":-89.0895,"lo2":-89.0444,"dy":0.0017,"dx":0.0017,"nx":28,"ny":28,"refTime":"2025-08-07T03:00:00:Z","depth":"2","parameterNumber":3,"parameterNumberName":"V-component_of_CURRENTS"},"data":[0,0,0,0,0,0,0,0,0,0,0,0,0,0,0,0,0,0,0,0,0,0,0,0,0,0,0,0,0,0,0,0,0,0,0,0,0,0,0,0,0,0,0,0,0,0,0,0,0,0,0,0,0,0,0,0,0,0,-0.0143,-0.0144,0,-0.021,-0.021,-0.0211,-0.025,-0.025,-0.025,-0.025,-0.0352,-0.0355,-0.0357,0,0,0,0,0,0,0,0,0,0,0,0,0,-0.0091,-0.0091,-0.0143,-0.0144,-0.0145,-0.021,-0.0211,-0.0211,-0.025,-0.025,-0.025,-0.025,-0.0352,-0.0355,-0.0358,0,0,0,0,0,0,0,0,0,0,0,0,0,-0.0131,-0.0091,-0.0143,-0.0172,-0.0175,-0.0209,-0.0211,-0.0212,-0.025,-0.025,-0.025,-0.025,-0.0351,-0.0354,-0.0358,-0.0377,0,0,-0.037,-0.0372,0,0,0,0,0,0,0,0,-0.0128,-0.0133,-0.0167,-0.017,-0.0174,-0.0222,-0.023,-0.0269,-0.0249,-0.0221,-0.025,-0.025,-0.0312,-0.0319,-0.033,-0.0382,-0.0386,-0.037,-0.0373,-0.0374,-0.0375,0,0,0,0,0,0,0,-0.0125,-0.013,-0.0169,-0.0168,-0.0172,-0.0196,-0.0201,-0.0237,-0.0265,-0.0223,-0.0226,-0.0234,-0.0314,-0.0326,-0.0333,-0.0388,-0.037,-0.0374,-0.0376,-0.0377,-0.0471,-0.0471,0,0,0,0,0,0,-0.0115,-0.0127,-0.0167,-0.0171,-0.0151,-0.0196,-0.0203,-0.0206,-0.0264,-0.0273,-0.0234,-0.0236,-0.032,-0.0328,-0.0337,-0.0368,-0.0374,-0.0378,-0.038,-0.0471,-0.0471,-0.0471,0,0,0,0,0,0,-0.0114,-0.0118,-0.0164,-0.0151,-0.0159,-0.0197,-0.02,-0.0207,-0.0219,-0.0271,-0.0281,-0.0239,-0.032,-0.0331,-0.0364,-0.0372,-0.038,-0.0383,-0.0471,-0.0471,-0.0471,-0.0427,0,0,0,0,0,0,-0.0112,-0.0117,-0.0114,-0.015,-0.0159,-0.0179,-0.02,-0.0208,-0.0224,-0.0227,-0.0279,-0.0288,-0.0321,-0.0358,-0.0368,-0.0377,-0.0386,-0.0471,-0.0471,-0.0471,-0.0428,-0.0426,-0.0423,0,0,0,0,0,-0.011,-0.0102,-0.0114,-0.0119,-0.0155,-0.0179,-0.0185,-0.0213,-0.0223,-0.0225,-0.026,-0.0287,-0.0368,-0.0361,-0.0373,-0.0384,-0.047,-0.0471,-0.0471,-0.0429,-0.0426,-0.0424,0,0,0,0,0,0,-0.0077,-0.0107,-0.012,-0.0122,-0.0146,-0.0185,-0.0188,-0.0209,-0.0237,-0.0239,-0.0288,-0.03,-0.0331,-0.0362,-0.0354,-0.0412,-0.0424,-0.0427,-0.0389,-0.0386,-0.0384,-0.0368,-0.0389,0,0,0,0,0,-0.0068,-0.007,-0.0105,-0.0106,-0.0115,-0.0151,-0.0164,-0.0182,-0.0213,-0.0226,-0.0264,-0.0305,-0.0343,-0.0366,-0.04,-0.0432,-0.0449,-0.0448,-0.0445,-0.0443,-0.0438,-0.047,-0.047,-0.0473,-0.0473,-0.0473,0,0,-0.0056,-0.0072,-0.0074,-0.0099,-0.0119,-0.0132,-0.0159,-0.0172,-0.0185,-0.0233,-0.0258,-0.0295,-0.0347,-0.038,-0.0398,-0.0408,-0.0448,-0.0443,-0.0441,-0.0438,-0.047,-0.047,-0.047,-0.0473,-0.0473,-0.0473,0,0,-0.0033,-0.0045,-0.0042,-0.006,-0.0086,-0.011,-0.0112,-0.0149,-0.0165,-0.0193,-0.0232,-0.027,-0.0326,-0.0367,-0.0395,-0.0401,-0.043,-0.0416,-0.0399,-0.0429,-0.0429,-0.0429,-0.0432,-0.0433,-0.042,-0.042,-0.042,0,-0.0017,-0.0021,-0.0045,-0.0049,-0.006,-0.0098,-0.01,-0.0124,-0.0167,-0.0174,-0.0193,-0.027,-0.032,-0.0363,-0.0374,-0.0396,-0.0407,-0.0404,-0.0425,-0.0426,-0.0426,-0.043,-0.0431,-0.0418,-0.0418,-0.0418,-0.0419,0,0.0002,-0.0003,-0.0001,-0.002,-0.0032,-0.0038,-0.0074,-0.0087,-0.0111,-0.0135,-0.0171,-0.0236,-0.0277,-0.031,-0.035,-0.0385,-0.0387,-0.0412,-0.0428,-0.0423,-0.0427,-0.0429,-0.0415,-0.0416,-0.0416,-0.0417,0,0,0.0042,0.0017,0.0017,0.0016,-0.0016,-0.0022,-0.0037,-0.0058,-0.0047,-0.0105,-0.0095,-0.0195,-0.0218,-0.0252,-0.0308,-0.0354,-0.0377,-0.0387,-0.039,-0.0382,-0.0423,-0.0466,-0.0472,-0.0406,-0.0407,-0.0407,-0.0416,0,0.0062,0.0066,0.0045,0.0048,0.0046,0.0015,0.0013,-0.0007,-0.0023,-0.002,-0.0093,-0.0102,-0.0199,-0.0204,-0.0273,-0.0334,-0.0384,-0.0371,-0.0436,-0.0437,-0.047,-0.0477,-0.0428,-0.0437,-0.0418,-0.0419,-0.0419,0,0.0083,0.0084,0.0094,0.009,0.009,0.0092,0.01,0.0092,0.0082,0.008,0.0045,0.0008,-0.0059,-0.0132,-0.0263,-0.0247,-0.0338,-0.0401,-0.0403,-0.0462,-0.0486,-0.0444,-0.0442,-0.0423,-0.0423,-0.0422,-0.0422,0,0.0124,0.0117,0.013,0.0126,0.0118,0.013,0.0132,0.0129,0.0166,0.0162,0.0215,0.0107,0.0111,-0.0041,-0.0192,-0.0218,-0.032,-0.0364,-0.0492,-0.0494,-0.0475,-0.0476,-0.0467,-0.0467,-0.0467,-0.0467,-0.0467,0,0.0153,0.0164,0.0156,0.0167,0.0205,0.0183,0.0245,0.0237,0.0284,0.0355,0.028,0.0317,0.0134,0.0052,-0.0132,-0.0308,-0.0276,-0.0486,-0.0507,-0.0458,-0.0457,-0.047,-0.047,-0.0467,-0.0467,-0.0467,-0.0467,0,0.0201,0.0185,0.0212,0.022,0.0227,0.0264,0.0339,0.0402,0.043,0.0531,0.0551,0.0509,0.0372,0.0175,-0.0036,-0.0191,-0.0379,-0.0457,-0.0376,-0.039,-0.0544,-0.0542,-0.0588,-0.059,-0.0592,-0.0593,-0.0594,0,0.0224,0.024,0.0268,0.0303,0.0314,0.0373,0.0434,0.0472,0.0552,0.0637,0.0698,0.0626,0.0551,0.0243,-0.0055,-0.0356,-0.0414,-0.0477,-0.0551,-0.0545,-0.056,-0.0556,-0.0551,-0.0489,-0.0489,-0.0489,-0.049,0,0.0282,0.0295,0.0323,0.0401,0.0465,0.0546,0.0629,0.0704,0.0769,0.0831,0.0873,0.0824,0.0559,0.0266,-0.0104,-0.0311,-0.0433,-0.0492,-0.0488,-0.0484,-0.0458,-0.0471,-0.0469,-0.049,-0.049,-0.049,-0.049,-0.049,0.0335,0.0378,0.0428,0.0499,0.0585,0.0693,0.0764,0.0838,0.0927,0.0994,0.0956,0.0888,0.064,0.0124,-0.0171,-0.0466,-0.0496,-0.0583,-0.058,-0.0577,-0.0582,-0.0562,-0.0612,-0.0613,-0.0613,-0.0614,-0.0614,0,0.0396,0.0444,0.0523,0.0609,0.0721,0.0761,0.088,0.0922,0.0976,0.1032,0.1008,0.0767,0.0478,0.0179,-0.0251,-0.0517,-0.052,-0.0598,-0.0527,-0.0526,-0.0524,-0.0524,-0.0541,-0.0541,-0.0542,-0.0542,0,0,0.0432,0.0505,0.0539,0.0699,0.0787,0.0931,0.0997,0.0993,0.102,0.1005,0.0983,0.0908,0.0579,0.0287,-0.0068,-0.0296,-0.0353,-0.0348,-0.0381,-0.0256,-0.0251,-0.0494,-0.0491,0,0,0,0,0]}],[{"header":{"parameterUnit":"m.s-1","parameterCategory":2,"la1":30.2991,"la2":30.254,"lo1":-89.0895,"lo2":-89.0444,"dy":0.0017,"dx":0.0017,"nx":28,"ny":28,"refTime":"2025-08-07T03:00:00:Z","depth":"4","parameterNumber":2,"parameterNumberName":"U-component_of_CURRENTS"},"data":[0,0,0,0,0,0,0,0,0,0,0,0,0,0,0,0,0,0,0,0,0,0,0,0,0,0,0,0,0,0,0,0,0,0,0,0,0,0,0,0,0,0,0,0,0,0,0,0,0,0,0,0,0,0,0,0,0,0,0.1201,0.1201,0,0.1258,0.1258,0.1259,0.1317,0.1318,0.1318,0.1319,0.1376,0.1377,0.1378,0,0,0,0,0,0,0,0,0,0,0,0,0,0.1136,0.1137,0.1201,0.1201,0.1202,0.1257,0.1258,0.1259,0.1317,0.1318,0.1319,0.132,0.1376,0.1377,0.1378,0,0,0,0,0,0,0,0,0,0,0,0,0,0.1175,0.1137,0.12,0.1238,0.1241,0.1257,0.1258,0.1259,0.1317,0.1318,0.1319,0.132,0.1376,0.1377,0.1378,0.1361,0,0,0.1381,0.1382,0,0,0,0,0,0,0,0,0.1173,0.1178,0.1231,0.1235,0.1239,0.1281,0.1256,0.1293,0.1316,0.1288,0.1319,0.1321,0.1344,0.1347,0.1355,0.1364,0.1366,0.1381,0.1382,0.1383,0.1383,0,0,0,0,0,0,0,0.117,0.1175,0.1223,0.1232,0.1237,0.1249,0.1256,0.1264,0.1308,0.129,0.1295,0.1301,0.1346,0.1354,0.1357,0.1367,0.1381,0.1382,0.1383,0.1384,0.1467,0.1468,0,0,0,0,0,0,0.1162,0.1173,0.1221,0.1225,0.1209,0.125,0.1257,0.1267,0.1308,0.1316,0.13,0.1303,0.1352,0.1356,0.1359,0.1428,0.1383,0.1384,0.1384,0.1465,0.1467,0.1469,0,0,0,0,0,0,0.1161,0.1166,0.1219,0.12,0.1208,0.1249,0.1259,0.1267,0.1305,0.1316,0.1323,0.1333,0.1353,0.1358,0.1399,0.1427,0.1384,0.1385,0.1463,0.1466,0.1468,0.1509,0,0,0,0,0,0,0.1159,0.1165,0.1183,0.12,0.1208,0.1245,0.1258,0.1267,0.1305,0.1311,0.1346,0.1351,0.1354,0.1397,0.14,0.1428,0.1386,0.1461,0.1464,0.1467,0.1506,0.1512,0.1518,0,0,0,0,0,0.1156,0.1171,0.1183,0.119,0.1227,0.1245,0.1252,0.1285,0.1306,0.1323,0.1356,0.1351,0.1417,0.1399,0.1402,0.1431,0.146,0.1464,0.1467,0.1503,0.1511,0.1518,0,0,0,0,0,0,0.1152,0.1179,0.1193,0.1216,0.1237,0.1256,0.1279,0.1298,0.1337,0.1353,0.1366,0.1374,0.1419,0.1421,0.14,0.1465,0.1439,0.1443,0.1466,0.1473,0.1479,0.1483,0.1387,0,0,0,0,0,0.1157,0.1179,0.1199,0.122,0.1233,0.1261,0.1279,0.1299,0.1328,0.1348,0.1371,0.1401,0.1429,0.1449,0.1466,0.1499,0.1508,0.1521,0.1527,0.1533,0.1539,0.1587,0.1598,0.148,0.148,0.148,0,0,0.1156,0.1179,0.1188,0.1222,0.1243,0.126,0.1276,0.1308,0.1335,0.1346,0.1398,0.1421,0.1443,0.1483,0.1504,0.1493,0.1571,0.1537,0.1541,0.1545,0.1591,0.1603,0.1613,0.1482,0.1482,0.1481,0,0,0.1158,0.1191,0.1205,0.1228,0.1265,0.128,0.1294,0.1327,0.1361,0.14,0.1425,0.147,0.1501,0.1531,0.1548,0.1598,0.1599,0.1607,0.1644,0.169,0.17,0.1709,0.1732,0.1743,0.1613,0.1613,0.1613,0,0.1157,0.1183,0.1212,0.1234,0.1255,0.129,0.1307,0.1341,0.1386,0.142,0.1424,0.1508,0.1523,0.1589,0.1611,0.1612,0.1633,0.1612,0.1698,0.1707,0.1716,0.1737,0.1748,0.1616,0.1615,0.1615,0.1615,0,0.1164,0.1195,0.1208,0.1247,0.127,0.1296,0.1335,0.1378,0.1418,0.145,0.1528,0.156,0.1613,0.1628,0.1635,0.1711,0.1704,0.1697,0.1677,0.173,0.1749,0.176,0.1619,0.1618,0.1617,0.1617,0,0,0.1134,0.1199,0.1206,0.1231,0.1284,0.1301,0.1356,0.1413,0.147,0.1517,0.1589,0.1643,0.1676,0.1698,0.1723,0.1766,0.1839,0.1763,0.1765,0.1781,0.1936,0.1819,0.1819,0.1854,0.1856,0.1858,0.1923,0,0.1133,0.1171,0.1207,0.1247,0.1267,0.1325,0.1358,0.1419,0.1498,0.1577,0.1635,0.1714,0.1699,0.1752,0.1786,0.1835,0.1871,0.1821,0.1886,0.1888,0.1774,0.1829,0.1865,0.1931,0.1934,0.1935,0.1937,0,0.112,0.1154,0.1188,0.1248,0.1261,0.1295,0.139,0.1432,0.1549,0.1619,0.1716,0.1773,0.1862,0.1841,0.1932,0.1905,0.1924,0.1946,0.1949,0.1833,0.1791,0.1869,0.1956,0.1955,0.1953,0.1952,0.1951,0,0.1072,0.1138,0.1169,0.1192,0.1259,0.1304,0.1346,0.145,0.1515,0.1682,0.1759,0.1857,0.1924,0.1972,0.2007,0.1993,0.2088,0.2071,0.1978,0.1969,0.2035,0.2025,0.2131,0.213,0.213,0.213,0.213,0,0.1044,0.1074,0.1161,0.1181,0.1229,0.1279,0.1369,0.1443,0.1566,0.1651,0.1781,0.1868,0.1965,0.2026,0.2042,0.2033,0.2115,0.1993,0.1985,0.205,0.2041,0.2043,0.2031,0.2133,0.2132,0.2132,0.2131,0,0.0984,0.1036,0.1086,0.1175,0.121,0.1247,0.1379,0.1441,0.1566,0.1696,0.1756,0.19,0.1987,0.2046,0.213,0.2066,0.2086,0.2059,0.2122,0.2114,0.1929,0.192,0.1975,0.1972,0.1969,0.1966,0.1964,0,0.0955,0.0973,0.1081,0.1121,0.1177,0.1262,0.1307,0.1435,0.1519,0.1702,0.1742,0.1884,0.1969,0.1975,0.2047,0.2071,0.2044,0.203,0.198,0.193,0.1917,0.1912,0.1907,0.196,0.1959,0.1958,0.1957,0,0.0909,0.0957,0.1001,0.1081,0.1152,0.123,0.1324,0.1371,0.151,0.1639,0.172,0.1783,0.1862,0.1915,0.1937,0.195,0.2031,0.1999,0.2005,0.1958,0.1912,0.1901,0.1899,0.1947,0.1949,0.195,0.195,0,0.0878,0.0904,0.0969,0.1037,0.1117,0.1172,0.1234,0.1317,0.1393,0.1576,0.16,0.1736,0.1847,0.1853,0.188,0.188,0.1859,0.1795,0.1811,0.1823,0.1742,0.1659,0.162,0,0,0,0,0,0.0839,0.087,0.0925,0.0992,0.1067,0.1117,0.1226,0.1288,0.1424,0.144,0.1517,0.1593,0.1654,0.172,0.1692,0.1821,0.1864,0.178,0.1797,0.1891,0.1903,0.1821,0,0,0,0,0,0,0.0816,0.0864,0.09,0.0945,0.0979,0.1053,0.1115,0.12,0.122,0.1358,0.1396,0.1501,0.1577,0.1654,0.1663,0.1682,0.1662,0.1859,0.1856,0.1885,0.1895,0.1905,0.1825,0,0,0,0,0]},{"header":{"parameterUnit":"m.s-1","parameterCategory":2,"la1":30.2991,"la2":30.254,"lo1":-89.0895,"lo2":-89.0444,"dy":0.0017,"dx":0.0017,"nx":28,"ny":28,"refTime":"2025-08-07T03:00:00:Z","depth":"4","parameterNumber":3,"parameterNumberName":"V-component_of_CURRENTS"},"data":[0,0,0,0,0,0,0,0,0,0,0,0,0,0,0,0,0,0,0,0,0,0,0,0,0,0,0,0,0,0,0,0,0,0,0,0,0,0,0,0,0,0,0,0,0,0,0,0,0,0,0,0,0,0,0,0,0,0,-0.0061,-0.0061,0,-0.0102,-0.0102,-0.0103,-0.0133,-0.0134,-0.0134,-0.0134,-0.02,-0.0202,-0.0204,0,0,0,0,0,0,0,0,0,0,0,0,0,-0.0045,-0.0045,-0.0061,-0.0061,-0.0062,-0.0102,-0.0102,-0.0103,-0.0133,-0.0134,-0.0134,-0.0134,-0.02,-0.0202,-0.0204,0,0,0,0,0,0,0,0,0,0,0,0,0,-0.0066,-0.0045,-0.006,-0.0081,-0.0084,-0.0102,-0.0102,-0.0103,-0.0133,-0.0134,-0.0134,-0.0134,-0.0199,-0.0202,-0.0204,-0.0211,0,0,-0.0211,-0.0212,0,0,0,0,0,0,0,0,-0.0064,-0.0066,-0.0078,-0.008,-0.0083,-0.0113,-0.0121,-0.014,-0.0133,-0.0115,-0.0134,-0.0135,-0.0173,-0.0177,-0.0184,-0.0214,-0.0217,-0.0211,-0.0213,-0.0214,-0.0214,0,0,0,0,0,0,0,-0.0063,-0.0065,-0.0077,-0.0078,-0.0081,-0.0101,-0.0104,-0.0125,-0.0142,-0.0116,-0.0119,-0.0123,-0.0175,-0.0182,-0.0186,-0.0218,-0.0211,-0.0213,-0.0215,-0.0215,-0.0264,-0.0264,0,0,0,0,0,0,-0.0055,-0.0063,-0.0076,-0.0078,-0.0074,-0.0101,-0.0105,-0.0103,-0.0141,-0.0147,-0.0122,-0.0124,-0.0178,-0.0184,-0.0189,-0.0185,-0.0214,-0.0216,-0.0217,-0.0264,-0.0264,-0.0264,0,0,0,0,0,0,-0.0054,-0.0055,-0.0074,-0.0072,-0.0076,-0.0101,-0.0099,-0.0103,-0.0113,-0.0145,-0.0152,-0.0128,-0.0179,-0.0186,-0.0205,-0.0188,-0.0217,-0.0219,-0.0265,-0.0264,-0.0264,-0.0187,0,0,0,0,0,0,-0.0053,-0.0055,-0.0052,-0.0071,-0.0076,-0.0078,-0.0099,-0.0104,-0.0115,-0.0118,-0.0152,-0.0159,-0.0179,-0.0202,-0.0208,-0.0192,-0.0221,-0.0265,-0.0265,-0.0264,-0.0189,-0.0184,-0.0179,0,0,0,0,0,-0.0053,-0.0043,-0.0051,-0.0053,-0.007,-0.0077,-0.0081,-0.0101,-0.0115,-0.0113,-0.0139,-0.0158,-0.0205,-0.0203,-0.021,-0.0195,-0.0265,-0.0265,-0.0264,-0.0191,-0.0185,-0.0179,0,0,0,0,0,0,-0.0035,-0.0046,-0.0055,-0.005,-0.0061,-0.0082,-0.0084,-0.0099,-0.0118,-0.0124,-0.0156,-0.0164,-0.0177,-0.0201,-0.0198,-0.0211,-0.0238,-0.0239,-0.018,-0.0175,-0.017,-0.0146,-0.0223,0,0,0,0,0,-0.0029,-0.0025,-0.0041,-0.0036,-0.0041,-0.0063,-0.007,-0.0082,-0.0101,-0.0111,-0.0134,-0.0162,-0.0181,-0.0189,-0.0214,-0.0218,-0.0256,-0.0215,-0.021,-0.0205,-0.0192,-0.0232,-0.0228,-0.0264,-0.0264,-0.0264,0,0,-0.0021,-0.0027,-0.0025,-0.0032,-0.0044,-0.0032,-0.0068,-0.0073,-0.006,-0.0115,-0.0111,-0.0148,-0.0181,-0.0186,-0.0193,-0.0202,-0.0221,-0.0205,-0.0201,-0.019,-0.0231,-0.0227,-0.0224,-0.0264,-0.0264,-0.0264,0,0,0.0007,-0.0008,0.0009,0.0005,-0.0006,-0.0015,-0.0014,-0.0034,-0.0041,-0.0048,-0.0082,-0.0105,-0.0137,-0.0149,-0.0162,-0.0145,-0.0196,-0.016,-0.0107,-0.0145,-0.0142,-0.0139,-0.0201,-0.0204,-0.0151,-0.0151,-0.0151,0,0.0018,0.0038,0.0012,0.003,0.0036,-0.0001,0.0025,0.0015,-0.0007,-0.0011,-0.0037,-0.0085,-0.0114,-0.0113,-0.0105,-0.013,-0.0173,-0.0122,-0.0136,-0.0135,-0.0134,-0.0197,-0.0202,-0.0147,-0.0148,-0.0148,-0.0149,0,0.006,0.0077,0.0086,0.0102,0.0104,0.0117,0.0105,0.0101,0.0079,0.0063,0.0044,-0.0002,-0.0031,-0.0043,-0.0066,-0.0068,-0.011,-0.0128,-0.0145,-0.0125,-0.0194,-0.0201,-0.0142,-0.0143,-0.0145,-0.0145,0,0,0.0089,0.0114,0.0118,0.0139,0.0144,0.0151,0.0173,0.0179,0.0179,0.015,0.0145,0.0118,0.0073,0.0056,0.0016,-0.0008,-0.0044,-0.0057,-0.0061,-0.0107,-0.0151,-0.0151,-0.016,-0.0067,-0.0067,-0.0067,-0.0208,0,0.0134,0.0185,0.0187,0.0239,0.0264,0.0248,0.0272,0.0268,0.0239,0.0219,0.0174,0.0144,0.0117,0.0088,0.0066,-0.0029,-0.0055,-0.0005,-0.0173,-0.0178,-0.0171,-0.0164,-0.0068,-0.0214,-0.0215,-0.0216,-0.0217,0,0.0181,0.0208,0.0268,0.0308,0.0317,0.0342,0.0354,0.0367,0.0334,0.0305,0.0269,0.021,0.0167,0.0133,0.0016,0.0044,-0.0036,-0.0103,-0.011,-0.0136,-0.0189,-0.0237,-0.023,-0.0229,-0.0228,-0.0227,-0.0227,0,0.0213,0.0268,0.0317,0.0331,0.0367,0.0388,0.0404,0.0391,0.0388,0.0344,0.0306,0.0254,0.0185,0.0109,-0.0028,-0.0014,-0.0177,-0.0182,-0.0253,-0.0257,-0.0249,-0.025,-0.0248,-0.0248,-0.0247,-0.0247,-0.0247,0,0.0261,0.0298,0.0334,0.0358,0.0406,0.0422,0.0449,0.0446,0.0424,0.0408,0.0344,0.0298,0.0173,0.0061,-0.003,-0.0172,-0.0184,-0.0241,-0.0283,-0.0218,-0.0213,-0.0256,-0.0255,-0.0252,-0.0251,-0.025,-0.0249,0,0.028,0.0311,0.0361,0.0406,0.0422,0.0449,0.0474,0.0479,0.0455,0.0423,0.0404,0.0298,0.0162,0.0029,-0.0137,-0.0199,-0.0318,-0.0363,-0.0307,-0.0346,-0.0373,-0.0367,-0.0447,-0.0448,-0.0449,-0.045,-0.045,0,0.0293,0.0322,0.0379,0.0401,0.042,0.0459,0.048,0.049,0.0484,0.0424,0.04,0.0265,0.0185,-0.0053,-0.0178,-0.036,-0.0371,-0.0445,-0.0366,-0.0356,-0.0389,-0.0382,-0.0374,-0.0452,-0.0452,-0.0452,-0.0452,0,0.0297,0.0315,0.0346,0.0393,0.0425,0.0464,0.0492,0.0493,0.049,0.0466,0.0392,0.0278,0.0112,-0.0045,-0.0208,-0.0323,-0.0397,-0.0454,-0.0452,-0.0378,-0.0362,-0.0393,-0.0385,-0.0455,-0.0455,-0.0454,-0.0454,0,0.0278,0.0291,0.0325,0.0364,0.0408,0.0444,0.0476,0.0476,0.0478,0.0432,0.0406,0.0254,0.0165,-0.003,-0.0167,-0.0295,-0.0303,-0.0322,-0.0327,-0.0326,-0.0233,-0.0192,-0.0264,0,0,0,0,0,0.0247,0.0252,0.029,0.0329,0.0379,0.0405,0.0463,0.0489,0.0493,0.0452,0.0438,0.0304,0.0102,0.0008,-0.0117,-0.0185,-0.0339,-0.0335,-0.0366,-0.0471,-0.0467,-0.0376,0,0,0,0,0,0,0.0217,0.0243,0.0267,0.0289,0.0311,0.0359,0.0402,0.0422,0.0411,0.0407,0.0305,0.0265,0.0068,0.0158,-0.013,-0.017,-0.0204,-0.0429,-0.0431,-0.0473,-0.047,-0.0467,-0.0372,0,0,0,0,0]}]]